www.pogodaiklimat.ru
ПОГОДА в Нефтеюганске

Архив погоды в Нефтеюганске (Ханты-Мансийский АО, Россия)

Время
(UTC), дата
21 23.06
00 24.06
03 24.06
06 24.06
09 24.06
12 24.06
15 24.06
18 24.06
21 24.06
00 25.06
03 25.06
06 25.06
09 25.06
12 25.06
15 25.06
18 25.06
21 25.06
00 26.06
03 26.06
06 26.06
09 26.06
12 26.06
15 26.06
18 26.06
21 26.06
00 27.06
03 27.06
06 27.06
09 27.06
12 27.06
15 27.06
18 27.06
21 27.06
00 28.06
03 28.06
06 28.06
09 28.06
12 28.06
15 28.06
18 28.06
21 28.06
00 29.06
03 29.06
06 29.06
09 29.06
12 29.06
15 29.06
18 29.06
21 29.06
00 30.06
03 30.06
06 30.06
09 30.06
12 30.06
15 30.06
Ветер
(напр.,м/с)
Видим. Явления Облачность Т
(С)
Тd
(С)
f
(%)
Тe
(С)
Тes
(С)
Комфортность P
(гПа)
Po
(гПа)
Тmin
(С)
Tmax
(С)
R
(мм)
R24
(мм)
S
(см)
ЮЗ 1 н/о н/о +18.0 +13.3 74 +19 +19 тепло 1000.7 996.0
В 1 н/о н/о +17.2 +15.2 88 +18 +18 тепло 1000.7 996.0
З 3 50 км ясно +22.1 +16.8 72 +26 +32 душно 1000.6 996.0 +15.6
З 2 50 км гроза без осадков {ливн. дождь} 10/8 600 м
[Cb cap Ac und]
+20.6 +18.2 86 +25 +25 комфорт 1000.6 996.0
З 4
{11}
50 км в посл. час ливневой дождь {гроза} 10/8 600 м
[Cb cap Ac und]
+22.0 +15.1 65 +26 +26 душно 1000.6 996.0
З 6 50 км {гроза, ливн. дождь} 8/6 600 м
[Cu med, cong Ac trans]
+24.0 +14.1 54 +26 +27 жарко 999.3 994.7
З 6-10
{10}
50 км 8/6 600 м
[Cb cap Ac trans]
+21.5 +12.3 56 +24 +24 комфорт 1000.6 996.0 +25.9 0.4
З 5
{10}
н/о н/о +16.8 +10.4 66 +16 +16 тепло 1002.0 997.3
ЮЗ 2 н/о н/о +13.4 +9.6 78 +13 +13 по сезону 1000.7 996.0
З 3 н/о н/о +13.6 +7.8 68 +13 +13 по сезону 1000.7 996.0
Ю 3 50 км 6/0
[Ci sp]
+17.8 +6.3 47 +18 +20 тепло 999.4 994.7 +12.4
З 5 50 км 8/4 600 м
[Cu med, cong Ac trans Ci sp]
+21.0 +8.6 45 +22 +25 комфорт 997.9 993.3
З 6-10
{12}
50 км 6/4 600 м
[Cu med, cong Ci fib]
+20.5 +4.9 36 +21 +23 комфорт 997.9 993.3
З 4
{12}
50 км 6/5 600 м
[Cu med, cong Ci fib]
+21.6 +6.7 38 +22 +24 комфорт 997.9 993.3
СЗ 1 50 км 9/6 600 м
[Sc Ac trans]
+18.2 +9.3 56 +19 +20 тепло 998.0 993.3 +21.7
В 1 н/о н/о +14.2 +10.4 78 +15 +15 по сезону 996.7 992.0
ЮВ 1 н/о н/о +12.2 +10.8 91 +12 +12 по сезону 995.4 990.7
В 1 н/о н/о +14.8 +12.5 86 +15 +15 тепло 995.4 990.7
В 2 10 км слаб. ливневой дождь 9/6 600 м
[Cb cap Ac trans]
+15.0 +13.5 91 +15 +15 по сезону 994.0 989.3 +11.9 0.9
ЮВ 1 50 км {ливн. дождь} 9/8 600 м
[Cb cap Ac trans]
+19.1 +13.1 68 +21 +23 комфорт 993.9 989.3
В 1 50 км {гроза, ливн. дождь} 9/8 600 м
[Cb cap Ci sp]
+20.2 +12.9 63 +23 +25 комфорт 995.3 990.7
З 2 50 км в посл. час гроза {ливн. дождь} 8/6 600 м
[Cb cap Ci sp]
+19.1 +11.9 63 +21 +22 комфорт 995.3 990.7
СЗ 1 10 км слаб. ливневой дождь 9/8 600 м
[Cb cap Ac trans]
+14.0 +12.2 89 +14 +14 по сезону 995.4 990.7 +20.2 0.9
З 2 н/о н/о +13.8 +12.7 93 +13 +13 по сезону 994.0 989.3
СЗ 1 н/о н/о +14.1 +13.3 95 +14 +14 тепло 994.0 989.3
С 1 н/о н/о +14.7 +14.1 96 +15 +15 тепло 992.7 988.0
С 3 50 км 10/8 600 м
[Cb cap As op]
+14.7 +13.2 91 +14 +14 тепло 992.7 988.0 +13.2 5
СЗ 5 10 км слаб. ливневой дождь 10/8 300 м
[Cb cap As op]
+13.0 +11.6 91 +11 +11 прохладно 992.7 988.0 +13.0
СЗ 6 10 км 10 баллов +13.6 +12.5 93 +11 +11 прохладно 994.0 989.3
СЗ 5
{10}
10 км слаб. ливневой дождь 10/9 300 м
[Cb cap As op]
+13.9 +12.3 90 +12 +12 прохладно 995.4 990.7
СЗ 3 10 км 10 баллов +12.7 +11.3 91 +11 +11 по сезону 995.4 990.7 +14.7 18
СЗ 5 н/о н/о +12.1 +9.1 82 +10 +10 по сезону 996.7 992.0
СЗ 4 н/о н/о +10.9 +7.6 80 +9 +9 по сезону 996.8 992.0
СЗ 3 н/о н/о +10.0 +6.5 79 +8 по сезону 996.8 992.0
СЗ 5 50 км 10/8 600 м
[Cb cap As op]
+10.5 +6.1 74 +8 +8 по сезону 996.8 992.0 +9.5 0.5
З 6
{10}
50 км 10/8 600 м
[Cb cap As op]
+11.4 +6.9 74 +9 +9 прохладно 996.8 992.0
З 4 10 км слаб. ливневой дождь 10/8 600 м
[Cb cap As op]
+10.3 +7.9 85 +8 +8 прохладно 998.1 993.3
З 3 50 км {ливн. дождь} 10/8 600 м
[Cb cap As op]
+10.6 +8.4 86 +9 +9 прохладно 999.5 994.7
З 3 50 км {ливн. дождь} 10/6 600 м
[Cb cap Ac und]
+10.5 +8.1 85 +8 +8 прохладно 999.5 994.7 +11.6 2
З 3 н/о н/о +9.9 +7.8 87 +8 +8 по сезону 998.1 993.3
ЮЗ 3 н/о н/о +9.2 +8.0 92 +7 +7 по сезону 996.8 992.0
З 2 н/о н/о +9.2 +8.3 94 +7 +7 по сезону 996.8 992.0
ЮЗ 1 10 км слаб. ливневой дождь 10/6 600 м
[Cb cap As op]
+9.8 +8.7 93 +9 +9 по сезону 996.8 992.0 +9.1 3
СВ 2 10 км слаб. ливневой дождь 10/6 600 м
[Cb cap As op]
+11.1 +9.8 92 +10 +10 по сезону 998.1 993.3
С 3 50 км {ливн. дождь} 10/6 600 м
[Cb cap As op]
+10.5 +8.8 89 +8 +8 по сезону 998.1 993.3
С 3 50 км {ливн. дождь} 10/10 600 м
[Sc]
+10.5 +8.1 85 +8 +8 прохладно 999.5 994.7
СВ 3 50 км 9/6 600 м
[Cb cap Ac trans]
+10.6 +7.1 79 +9 +9 по сезону 999.5 994.7 +11.2 0.4
СВ 4
{10}
н/о н/о +10.5 +6.3 75 +8 +8 по сезону 998.1 993.3
С 3
{10}
н/о н/о +9.9 +7.0 82 +8 +8 по сезону 995.5 990.7
С 4
{11}
н/о н/о +9.2 +8.0 92 +6 +6 очень
холодно
995.5 990.7
С 4
{13}
10 км слаб. дождь 10/10 200 м
[Frnb Ns]
+9.6 +8.4 92 +7 +7 очень
холодно
994.1 989.3 +9.1 11
С 5
{11}
10 км 10 баллов +11.0 +9.6 91 +8 +8 очень
холодно
994.1 989.3
С 4
{10}
50 км 10 баллов +14.3 +10.5 78 +13 +13 очень
холодно
995.4 990.7
С 4
{10}
10 км 10 баллов +13.5 +12.2 92 +12 +12 очень
холодно
998.0 993.3
С 2 10 км 10 баллов +13.7 +12.3 91 +13 +13 холодно 999.4 994.7 +14.3 11
Местоположение метеостанции Нефтеюганск (Ханты-Мансийский АО, Россия): широта 61.07 долгота 72.62 высота над уровнем моря 40 м.
В архиве по умолчанию представлена погода в Нефтеюганске за последнюю неделю. Архивные данные за месяц целиком и за предыдущие месяцы, начиная с января 2011 года, Вы можете получить, выбрав интересующий диапазон дат из раскрывающегося списка и нажав кнопку "Найти!".
*Определитесь, кто Вы:
Внимание! Время в таблицах - всемирное. Для получения местного времени необходимо прибавить поправку, которая равна 5 ч.
Смотрите также архив погоды в соседних городах и на ближайших метеорологических станциях:
Партнеры нашего сайта:
Здесь
Полный комплекс услуг по оформлению лицензии Минпромтогра. Консультации
glavcert.ru

     
Пояснения к столбцам:
  • Ветер - указаны скорость ветра в м/с - средняя за 10 мин, порывы в срок и между сроками (в фигурных скобках) и направление, откуда дует ветер: С - северный,
  • СВ - северо-восточный, В - восточный, ЮВ - юго-восточный, Ю - южный, ЮЗ - юго-западный, З - западный, СЗ - северо-западный.
  • Видимость - горизонтальная дальность видимости в метрах или километрах. При видимости от 1 до 10 км при отсутствии осадков обычно наблюдается дымка, при ухудшении видимости до 1 км и менее - туман. В сухую погоду видимость может ухудшаться дымом, пылью или мглою.
  • Явления - указаны атмосферные явления, наблюдавшиеся в срок или в последний час перед сроком; фигурными скобками обозначены явления, наблюдавшиеся между сроками (за 1-3 часа до срока); квадратными скобками обозначены град или гололедные отложения с указанием их диаметра в мм.
  • Облачность - указаны через наклонную черту общая и нижняя облачность в баллах и высота нижней границы облаков в метрах; квадратными скобками обозначены формы облаков: Ci - перистые, Cs - перисто-слоистые, Cc - перисто-кучевые, Ac - высококучевые, As - высокослоистые, Sc - слоисто-кучевые, Ns - слоисто-дождевые, Cu - кучевые, Cb - кучево-дождевые. Подробнее классификацию облаков см. в Атласе облаков (PDF).
  • T - Температура воздуха - температура, измеренная на высоте 2 м над землей.
  • Td - Температура точки росы - температура, при понижении до которой содержащийся в воздухе водяной пар достигнет насыщения.
  • f - Относительная влажность воздуха - влажноcть воздуха, измеренная на высоте 2 м над землей.
  • Te - Эффективная температура - температура, которую ощущает одетый по сезону человек в тени. Характеристика душности погоды. При расчете учитывается влияние влажности воздуха и скорости ветра на теплоощущения человека.
  • Tes - Эффективная температура на солнце - температура, которую ощущает человек, с поправкой на солнечный нагрев. Характеристика знойности погоды. Зависит от высоты солнца над горизонтом, облачности и скорости ветра. Ночью, в пасмурную погоду, а также при ветре 12 м/с и более поправка равна нулю.
  • P - Атмосферное давление - приведенное к уровню моря атмосферное давление.
  • Po - Атмосферное давление - измеренное на уровне метеостанции атмосферное давление.
  • Tmin - Минимальная температура - минимум температуры воздуха на высоте 2 м над землей.
  • Tmax - Максимальная температура - максимум температуры воздуха на высоте 2 м над землей.
  • R - Количество осадков - Количество выпавших осадков за период времени, мм. При наведении курсора мыши на число - период времени, за который выпало указанное количество осадков.
  • R24 - Количество осадков - Количество выпавших осадков за 24 часа, мм.
  • S - Снежный покров - Высота снежного покрова, см. При наведении курсора мыши на число - состояние снежного покрова и степень покрытия местности в баллах.